Location: Muck Cross
(36.7179°N, 78.3678°W)
Time: 10:07:21
(UTC+00:00)

Courier 1B Rocket - All Passes

Search period start: 29 March 2023 00:00
Search period end: 08 April 2023 00:00
Orbit: 920 x 1202 km, 28.2° (Epoch: 28 March)

Date Brightness Start Highest point End Pass type
(mag) Time Alt. Az. Time Alt. Az. Time Alt. Az.
29 Mar - 01:47:49 10° WSW 01:54:20 41° S 02:00:25 10° ESE visible
29 Mar - 03:41:29 10° WSW 03:47:12 30° SSW 03:52:40 10° SE visible
29 Mar - 05:36:55 10° SW 05:39:44 13° SSW 05:42:30 10° S night (unlit)
29 Mar - 21:04:41 10° S 21:07:26 12° SSE 21:10:07 10° SE daylight
29 Mar - 22:54:04 10° SW 23:00:16 29° SSE 23:06:09 10° ESE daylight
30 Mar - 00:46:36 10° WSW 00:53:19 41° S 00:59:34 10° ESE visible
30 Mar - 02:40:05 10° WSW 02:46:18 36° S 02:52:09 10° SE visible
30 Mar - 04:34:34 10° WSW 04:38:57 19° SSW 04:43:13 10° SSE night (unlit)
30 Mar - 21:53:29 10° SSW 21:59:14 23° SSE 22:04:45 10° ESE daylight
30 Mar - 23:45:28 10° WSW 23:52:15 39° S 23:58:37 10° ESE visible
31 Mar - 01:38:45 10° WSW 01:45:20 40° S 01:51:29 10° ESE visible
31 Mar - 03:32:46 10° WSW 03:38:08 25° SSW 03:43:16 10° SSE visible
31 Mar - 20:53:18 10° SSW 20:58:12 18° SSE 21:02:59 10° ESE daylight
31 Mar - 22:44:26 10° SW 22:51:10 35° SSE 22:57:33 10° ESE daylight
01 Apr - 00:37:26 10° WSW 00:44:18 43° S 00:50:42 10° ESE visible
01 Apr - 02:31:12 10° WSW 02:37:16 31° SSW 02:42:58 10° SE visible
01 Apr - 04:26:44 10° WSW 04:29:48 14° SSW 04:32:49 10° S night (unlit)
01 Apr - 19:53:57 10° S 19:57:12 13° SSE 20:00:25 10° SE daylight
01 Apr - 21:43:34 10° SW 21:50:05 30° SSE 21:56:19 10° ESE daylight
01 Apr - 23:36:10 10° WSW 23:43:12 43° S 23:49:48 10° ESE daylight
02 Apr - 01:29:44 10° WSW 01:36:18 37° SSW 01:42:27 10° SE visible
02 Apr - 03:24:18 10° WSW 03:29:01 20° SSW 03:33:31 10° SSE visible
02 Apr - 20:42:59 10° SSW 20:48:59 25° SSE 20:54:50 10° ESE daylight
02 Apr - 22:35:01 10° WSW 22:42:04 40° S 22:48:47 10° ESE daylight
03 Apr - 00:28:20 10° WSW 00:35:15 42° S 00:41:45 10° ESE visible
03 Apr - 02:22:26 10° WSW 02:28:09 26° SSW 02:33:33 10° SSE visible
03 Apr - 19:42:49 10° SSW 19:47:57 19° SSE 19:53:00 10° ESE daylight
03 Apr - 21:33:58 10° SW 21:40:56 36° SSE 21:47:38 10° ESE daylight
03 Apr - 23:26:59 10° WSW 23:34:09 44° S 23:40:53 10° ESE daylight
04 Apr - 01:20:48 10° WSW 01:27:13 33° SSW 01:33:14 10° SE visible
04 Apr - 03:16:21 10° WSW 03:19:49 14° SSW 03:23:11 10° S visible
04 Apr - 18:43:26 10° S 18:46:56 13° SSE 18:50:25 10° ESE daylight
04 Apr - 20:33:08 10° SW 20:39:48 31° SSE 20:46:18 10° ESE daylight
04 Apr - 22:25:43 10° WSW 22:32:59 44° S 22:39:55 10° ESE daylight
05 Apr - 00:19:18 10° WSW 00:26:11 38° SSW 00:32:39 10° SE visible
05 Apr - 02:13:55 10° WSW 02:18:59 20° SSW 02:23:49 10° SSE visible
05 Apr - 19:32:36 10° SSW 19:38:42 25° SSE 19:44:46 10° ESE daylight
05 Apr - 21:24:34 10° WSW 21:31:48 41° S 21:38:48 10° ESE daylight
05 Apr - 23:17:53 10° WSW 23:25:04 43° S 23:31:53 10° ESE daylight
06 Apr - 01:12:01 10° WSW 01:18:04 27° SSW 01:23:47 10° SE visible
06 Apr - 18:32:29 10° SSW 18:37:39 19° SSE 18:42:51 10° ESE daylight
06 Apr - 20:23:36 10° SW 20:30:38 37° SSE 20:37:34 10° ESE daylight
06 Apr - 22:16:33 10° WSW 22:23:54 45° S 22:30:57 10° ESE daylight
07 Apr - 00:10:22 10° WSW 00:17:03 34° SSW 00:23:24 10° SE visible
07 Apr - 02:05:52 10° WSW 02:09:45 15° SSW 02:13:30 10° S visible
07 Apr - 17:33:11 10° S 17:36:39 14° SSE 17:40:10 10° ESE daylight
07 Apr - 19:22:49 10° SW 19:29:28 32° SSE 19:36:09 10° ESE daylight
07 Apr - 21:15:20 10° WSW 21:22:41 45° S 21:29:53 10° ESE daylight
07 Apr - 23:08:51 10° WSW 23:15:57 39° SSW 23:22:44 10° SE daylight
